"2016-02-27 00:00:00",1409691,3.438,157,5.526,0.171,13.71,105.0389,12.17,13.2,14.43,0,110.5,13.14,12.97,119.0
"2016-02-27 00:00:30",1409692,3.377,150.3,2.964,0.197,13.94,105.0366,12.17,13.19,14.44,0,110.5,13.14,12.96,112.3
"2016-02-27 00:01:00",1409693,3.199,151.9,2.036,0.107,14.18,105.0324,12.16,13.19,14.44,0,110.5,13.15,12.95,113.9
"2016-02-27 00:01:30",1409694,2.741,160.9,2.836,0.283,14.3,105.0299,12.15,13.18,14.46,0,110.5,13.16,12.94,122.9
"2016-02-27 00:02:00",1409695,3.422,163.5,9.03,1.244,15.77,105.0237,12.13,13.27,14.59,0,110.5,13.11,12.93,125.5
"2016-02-27 00:02:30",1409696,4.318,177.3,7.096,1.43,17.36,105.0189,12.12,13.39,14.69,0,110.5,13.11,12.92,139.3
"2016-02-27 00:03:00",1409697,4.174,170.7,7.332,1.477,16.94,105.0189,12.12,13.32,14.58,0,110.5,13.11,12.92,132.7
"2016-02-27 00:03:30",1409698,3.074,156.4,3.124,0.594,13.66,105.0186,12.12,13.24,14.47,0,110.5,13.11,12.91,118.4
"2016-02-27 00:04:00",1409699,4.894,163.1,8.31,1.439,16.43,105.0166,12.11,13.36,14.51,0,110.5,13.11,12.91,125.1
"2016-02-27 00:04:30",1409700,3.338,154.1,2.706,0.29,13.49,105.0124,12.1,13.17,14.34,0,110.5,13.11,12.90,116.1
"2016-02-27 00:05:00",1409701,3.322,155.3,1.678,0.102,13.37,105.0107,12.1,13.16,14.31,0,110.5,13.16,12.89,117.3
"2016-02-27 00:05:30",1409702,3.057,160.4,1.897,0.073,13.52,105.007,12.09,13.15,14.28,0,110.5,13.16,12.88,122.4
"2016-02-27 00:06:00",1409703,2.982,163,1.79,0.062,13.88,105.0054,12.09,13.13,14.23,0,110.5,13.16,12.88,125.0
"2016-02-27 00:06:30",1409704,2.957,167.9,1.917,0.087,14.02,105.0051,12.09,13.13,14.17,0,110.5,13.16,12.88,129.9
"2016-02-27 00:07:00",1409705,2.697,164.7,3.577,0.109,14.22,105.0051,12.09,13.13,14.18,0,110.5,13.16,12.88,126.7
"2016-02-27 00:07:30",1409706,3.163,166.6,4.582,0.92,14.7,105.0051,12.09,13.14,14.19,0,110.5,13.11,12.88,128.6
"2016-02-27 00:08:00",1409707,4.578,175.9,7.683,1.414,17.53,105.0051,12.09,13.36,14.41,0,110.5,13.11,12.88,137.9
"2016-02-27 00:08:30",1409708,4.056,172,6.9,1.473,16.52,105.0051,12.09,13.29,14.39,0,110.5,13.11,12.88,134.0
"2016-02-27 00:09:00",1409709,2.817,166.7,0.955,0.112,13.65,105.0051,12.09,13.12,14.23,0,110.5,13.16,12.88,128.7
"2016-02-27 00:09:30",1409710,2.947,168,1.003,0.067,13.24,105.0045,12.08,13.12,14.29,0,110.5,13.16,12.88,130.0
"2016-02-27 00:10:00",1409711,2.849,167.6,1.281,0.082,13.39,105.0034,12.08,13.1,14.32,0,110.5,13.16,12.88,129.6
"2016-02-27 00:10:30",1409712,3.596,171.6,6.934,1.18,14.88,104.9994,12.07,13.2,14.39,0,110.5,13.11,12.87,133.6
"2016-02-27 00:11:00",1409713,4.5,170.9,7.558,1.431,16.46,104.9963,12.06,13.23,14.46,0,110.5,13.11,12.86,132.9
"2016-02-27 00:11:30",1409714,3.21,157.7,2.197,0.113,13.91,104.9927,12.05,13.11,14.36,0,110.5,13.16,12.85,119.7
"2016-02-27 00:12:00",1409715,3.303,157.6,1.472,0.074,13.85,104.9882,12.04,13.09,14.44,0,110.5,13.16,12.84,119.6
"2016-02-27 00:12:30",1409716,3.402,162.4,3.859,0.761,14.56,104.98,12.02,13.17,14.55,0,110.5,13.11,12.82,124.4
"2016-02-27 00:13:00",1409717,4.584,163.6,7.908,1.387,16.42,104.9721,12,13.2,14.56,0,110.5,13.11,12.79,125.6
"2016-02-27 00:13:30",1409718,4.484,164.7,7.691,1.385,16.25,104.9712,12,13.29,14.65,0,110.5,13.11,12.79,126.7
"2016-02-27 00:14:00",1409719,4.914,165.6,7.479,1.43,16.51,104.9712,12,13.24,14.59,0,110.5,13.11,12.79,127.6
"2016-02-27 00:14:30",1409720,3.727,156.7,1.457,0.166,13.51,104.9712,12,13.07,14.47,0,110.5,13.15,12.79,118.7
"2016-02-27 00:15:00",1409721,3.59,158,1.564,0.093,13.34,104.9712,12,13.07,14.48,0,110.5,13.15,12.79,120.0
"2016-02-27 00:15:30",1409722,3.421,154.1,2.08,0.109,13.43,104.9712,12,13.06,14.49,0,110.5,13.15,12.79,116.1
"2016-02-27 00:16:00",1409723,3.881,158.5,5.414,0.916,14.41,104.9712,12,13.12,14.54,0,110.4,13.11,12.79,120.5
"2016-02-27 00:16:30",1409724,4.797,164.8,7.082,1.426,15.98,104.9707,12,13.15,14.54,0,110.5,13.11,12.79,126.8
"2016-02-27 00:17:00",1409725,4.328,161.6,7.174,1.173,15.66,104.9662,11.99,13.15,14.51,0,110.5,13.11,12.78,123.6
"2016-02-27 00:17:30",1409726,4.926,162.4,7.605,1.415,16.77,104.9589,11.97,13.23,14.59,0,110.5,13.11,12.76,124.4
"2016-02-27 00:18:00",1409727,4.28,162,6.418,1.323,15.5,104.9555,11.96,13.14,14.5,0,110.5,13.11,12.75,124.0
"2016-02-27 00:18:30",1409728,3.485,154.5,2.74,0.107,13.82,104.9454,11.93,13.04,14.42,0,110.5,13.16,12.73,116.5
"2016-02-27 00:19:00",1409729,4.67,165.5,8.27,1.424,16.85,104.9421,11.92,13.21,14.6,0,110.5,13.11,12.72,127.5
"2016-02-27 00:19:30",1409730,3.427,154.6,3.042,0.564,13.67,104.9419,11.92,13,14.41,0,110.5,13.11,12.72,116.6
"2016-02-27 00:20:00",1409731,3.268,153.7,1.883,0.139,13.51,104.9434,11.93,13,14.42,0,110.5,13.16,12.72,115.7
"2016-02-27 00:20:30",1409732,3.035,151.5,3.409,0.093,13.51,104.9436,11.93,12.98,14.44,0,110.5,13.16,12.72,113.5
"2016-02-27 00:21:00",1409733,3.2,159.6,1.879,0.129,13.77,104.9463,11.93,12.99,14.43,0,110.5,13.16,12.73,121.6
"2016-02-27 00:21:30",1409734,3.113,162.9,2.262,0.09,14.12,104.9446,11.93,12.98,14.37,0,110.5,13.16,12.72,124.9
"2016-02-27 00:22:00",1409735,3.844,163.8,6.124,1.132,16,104.9408,11.92,13.13,14.53,0,110.5,13.12,12.71,125.8
"2016-02-27 00:22:30",1409736,4.941,165,8.48,1.449,17.59,104.9327,11.9,13.21,14.61,0,110.5,13.12,12.69,127.0
"2016-02-27 00:23:00",1409737,4.4,154.1,11.43,1.47,16.31,104.9249,11.88,13.05,14.51,0,110.5,13.12,12.67,116.1
"2016-02-27 00:23:30",1409738,2.539,146.9,4.672,0.261,13.87,104.9198,11.87,12.95,14.44,0,110.5,13.16,12.66,108.9
"2016-02-27 00:24:00",1409739,3.826,162.6,7.061,1.357,15.4,104.922,11.87,13.02,14.49,0,110.5,13.12,12.67,124.6
"2016-02-27 00:24:30",1409740,3.955,161.7,9.3,1.232,15.47,104.9246,11.88,13.06,14.46,0,110.5,13.12,12.67,123.7
"2016-02-27 00:25:00",1409741,2.966,163.2,2.911,0.136,13.69,104.9273,11.89,12.93,14.25,0,110.5,13.17,12.68,125.2
"2016-02-27 00:25:30",1409742,2.801,155.9,5.966,0.205,13.57,104.9302,11.89,12.92,14.21,0,110.5,13.17,12.69,117.9
"2016-02-27 00:26:00",1409743,3.083,149.2,3.136,0.156,13.6,104.9303,11.89,12.9,14.32,0,110.5,13.17,12.69,111.2
"2016-02-27 00:26:30",1409744,2.846,150.6,2.959,0.108,13.7,104.9233,11.88,12.9,14.42,0,110.5,13.17,12.67,112.6
"2016-02-27 00:27:00",1409745,3.126,156.7,8.03,0.748,14.61,104.9162,11.86,12.99,14.54,0,110.4,13.12,12.65,118.7
"2016-02-27 00:27:30",1409746,4.519,165.2,8.65,1.41,16.76,104.9111,11.84,13.05,14.55,0,110.4,13.12,12.64,127.2
"2016-02-27 00:28:00",1409747,4.835,159.1,7.14,1.402,17.17,104.9053,11.83,13.04,14.55,0,110.4,13.12,12.62,121.1
"2016-02-27 00:28:30",1409748,2.986,152.4,2.133,0.416,14.15,104.9044,11.83,12.92,14.48,0,110.4,13.12,12.62,114.4
"2016-02-27 00:29:00",1409749,3.255,152.6,7.777,1.079,14.83,104.9047,11.83,12.96,14.49,0,110.4,13.12,12.62,114.6
"2016-02-27 00:29:30",1409750,4.109,158,7.942,1.403,15.8,104.9053,11.83,12.96,14.51,0,110.4,13.12,12.62,120.0
"2016-02-27 00:30:00",1409751,3.403,159.4,5.557,0.898,14.57,104.9047,11.83,12.92,14.53,0,110.4,13.12,12.62,121.4
"2016-02-27 00:30:30",1409752,3.193,154.4,2.756,0.077,13.58,104.8996,11.82,12.82,14.4,0,110.4,13.16,12.61,116.4
"2016-02-27 00:31:00",1409753,3.112,153.5,1.398,0.102,13.77,104.8881,11.79,12.83,14.43,0,110.4,13.16,12.58,115.5
"2016-02-27 00:31:30",1409754,3.901,157.5,6.812,1.242,15.34,104.8737,11.75,12.9,14.55,0,110.4,13.12,12.54,119.5
"2016-02-27 00:32:00",1409755,3.901,160.4,6.803,1.301,15.41,104.8714,11.74,12.93,14.57,0,110.4,13.12,12.54,122.4
"2016-02-27 00:32:30",1409756,3.678,157.9,6.494,1.08,15.09,104.8714,11.74,12.87,14.49,0,110.4,13.12,12.54,119.9
"2016-02-27 00:33:00",1409757,4.04,158.2,6.338,1.219,15.37,104.8714,11.74,12.88,14.48,0,110.4,13.12,12.54,120.2
"2016-02-27 00:33:30",1409758,4.634,161.8,7.086,1.447,16.77,104.87,11.74,12.97,14.55,0,110.4,13.11,12.53,123.8
"2016-02-27 00:34:00",1409759,4.456,157.5,7.122,1.362,15.48,104.8613,11.72,12.8,14.45,0,110.4,13.11,12.51,119.5
"2016-02-27 00:34:30",1409760,4.748,161.7,7.839,1.417,16.47,104.8523,11.69,12.94,14.61,0,110.4,13.12,12.49,123.7
"2016-02-27 00:35:00",1409761,3.496,154.3,2.794,0.527,13.78,104.8404,11.66,12.72,14.45,0,110.4,13.12,12.46,116.3
"2016-02-27 00:35:30",1409762,3.329,153.7,0.596,0.042,13.69,104.8376,11.66,12.73,14.47,0,110.4,13.17,12.45,115.7
"2016-02-27 00:36:00",1409763,4.203,156,6.557,1.344,15.4,104.8376,11.66,12.83,14.59,0,110.4,13.12,12.45,118.0
"2016-02-27 00:36:30",1409764,4.237,151.3,6.625,1.308,15.33,104.8362,11.65,12.86,14.63,0,110.4,13.12,12.45,113.3
"2016-02-27 00:37:00",1409765,4.047,149.9,6.365,1.224,14.93,104.8294,11.64,12.74,14.52,0,110.4,13.13,12.43,111.9
"2016-02-27 00:37:30",1409766,3.413,145.4,1.758,0.105,13.77,104.8111,11.59,12.67,14.46,0,110.4,13.17,12.38,107.4
"2016-02-27 00:38:00",1409767,4.854,153,7.455,1.423,16.51,104.8038,11.57,12.85,14.63,0,110.4,13.13,12.36,115.0
"2016-02-27 00:38:30",1409768,4.327,147.8,6.524,1.338,15.92,104.8038,11.57,12.87,14.67,0,110.4,13.13,12.36,109.8
"2016-02-27 00:39:00",1409769,4.874,147.5,7.319,1.407,16.6,104.8032,11.57,12.75,14.59,0,110.4,13.13,12.36,109.5
"2016-02-27 00:39:30",1409770,3.364,138.9,0.694,0.06,13.87,104.7914,11.54,12.63,14.48,0,110.4,13.17,12.33,100.9
"2016-02-27 00:40:00",1409771,3.341,138,0.862,0.057,13.78,104.7739,11.49,12.59,14.49,0,110.4,13.17,12.29,100.0
"2016-02-27 00:40:30",1409772,4.574,143.5,7.063,1.337,16.01,104.77,11.48,12.67,14.61,0,110.4,13.13,12.28,105.5
"2016-02-27 00:41:00",1409773,4.186,142.4,6.389,1.322,15.56,104.7663,11.47,12.69,14.66,0,110.4,13.13,12.27,104.4
"2016-02-27 00:41:30",1409774,3.216,136.2,1.954,0.104,13.7,104.7463,11.42,12.55,14.64,0,110.4,13.18,12.22,98.2
"2016-02-27 00:42:00",1409775,3.266,138.4,1.019,0.038,13.95,104.7388,11.4,12.52,14.67,0,110.4,13.18,12.20,100.4
"2016-02-27 00:42:30",1409776,3.919,138.4,5.734,1.215,15.52,104.7389,11.4,12.66,14.84,0,110.4,13.13,12.20,100.4
"2016-02-27 00:43:00",1409777,4.617,144.6,7.864,1.431,17.06,104.728,11.38,12.71,14.98,0,110.4,13.13,12.17,106.6
"2016-02-27 00:43:30",1409778,4.748,145.8,7.735,1.368,16.84,104.7123,11.34,12.62,14.95,0,110.4,13.13,12.13,107.8
"2016-02-27 00:44:00",1409779,3.195,139.7,0.703,0.031,13.92,104.7115,11.33,12.42,14.83,0,110.4,13.18,12.13,101.7
"2016-02-27 00:44:30",1409780,3.385,141.2,4.741,0.861,14.36,104.698,11.3,12.44,14.91,0,110.4,13.13,12.09,103.2
"2016-02-27 00:45:00",1409781,4.143,146.2,6.978,1.383,15.69,104.6865,11.27,12.48,15.04,0,110.4,13.13,12.06,108.2
"2016-02-27 00:45:30",1409782,3.781,146.2,5.985,1.218,15.16,104.6862,11.27,12.46,15.08,0,110.4,13.13,12.06,108.2
"2016-02-27 00:46:00",1409783,3.082,142.9,0.542,0.075,13.86,104.6789,11.25,12.35,15.04,0,110.4,13.18,12.04,104.9
"2016-02-27 00:46:30",1409784,3.074,145.3,1.186,0.037,14.11,104.6578,11.2,12.32,15.08,0,110.4,13.18,11.99,107.3
"2016-02-27 00:47:00",1409785,4.68,154.7,7.509,1.404,17.14,104.6588,11.2,12.45,15.26,0,110.3,13.13,11.99,116.7
"2016-02-27 00:47:30",1409786,4.345,155.6,7.537,1.419,16.67,104.6538,11.19,12.48,15.37,0,110.4,13.13,11.98,117.6
"2016-02-27 00:48:00",1409787,4.23,152.1,7.2,1.41,16.17,104.6363,11.14,12.34,15.28,0,110.4,13.13,11.93,114.1
"2016-02-27 00:48:30",1409788,3.075,147.8,1.629,0.069,13.92,104.6282,11.12,12.23,15.2,0,110.3,13.18,11.91,109.8
"2016-02-27 00:49:00",1409789,3.18,150.8,1.312,0.522,13.92,104.6298,11.13,12.21,15.12,0,110.4,13.13,11.92,112.8
"2016-02-27 00:49:30",1409790,4.299,154.8,8.09,1.442,16.45,104.6215,11.1,12.39,15.29,0,110.3,13.13,11.89,116.8
"2016-02-27 00:50:00",1409791,3.229,146.9,4.396,0.731,14.02,104.6108,11.08,12.22,15.2,0,110.3,13.13,11.87,108.9
"2016-02-27 00:50:30",1409792,2.877,145.8,1.838,0.062,13.58,104.6024,11.05,12.14,15.25,0,110.3,13.18,11.85,107.8
"2016-02-27 00:51:00",1409793,2.956,144.4,1.245,0.064,13.7,104.6001,11.05,12.11,15.31,0,110.3,13.18,11.84,106.4
"2016-02-27 00:51:30",1409794,4.131,151.5,6.779,1.394,16.36,104.5857,11.01,12.24,15.53,0,110.3,13.13,11.80,113.5
"2016-02-27 00:52:00",1409795,4.108,153,6.574,1.363,16.58,104.5699,10.97,12.28,15.57,0,110.3,13.14,11.76,115.0
"2016-02-27 00:52:30",1409796,4.238,150.2,7.254,1.395,16.37,104.5685,10.97,12.15,15.53,0,110.3,13.14,11.76,112.2
"2016-02-27 00:53:00",1409797,3.024,147.3,2.571,0.097,14.15,104.5668,10.96,12.11,15.52,0,110.3,13.19,11.75,109.3
"2016-02-27 00:53:30",1409798,3.837,151.4,6.632,1.25,15.12,104.5533,10.93,12.07,15.43,0,110.3,13.15,11.72,113.4
"2016-02-27 00:54:00",1409799,4.351,153.8,7.486,1.426,16.25,104.5383,10.89,12.2,15.56,0,110.3,13.15,11.68,115.8
"2016-02-27 00:54:30",1409800,3.691,150.5,4.399,0.962,14.04,104.5347,10.88,11.99,15.31,0,110.3,13.15,11.67,112.5
"2016-02-27 00:55:00",1409801,3.366,147.7,0.945,0.031,13.36,104.5341,10.88,11.95,15.38,0,110.3,13.2,11.67,109.7
"2016-02-27 00:55:30",1409802,3.366,144.6,0.652,0.046,13.83,104.5211,10.85,11.94,15.5,0,110.3,13.2,11.64,106.6
"2016-02-27 00:56:00",1409803,4.6,150,6.995,1.449,16.02,104.5031,10.8,12.02,15.72,0,110.3,13.15,11.59,112.0
"2016-02-27 00:56:30",1409804,4.601,149.2,7.169,1.366,16.38,104.5017,10.8,12.12,15.93,0,110.3,13.15,11.59,111.2
"2016-02-27 00:57:00",1409805,4.667,149,7.57,1.347,16.19,104.5073,10.81,12.09,15.93,0,110.3,13.15,11.60,111.0
"2016-02-27 00:57:30",1409806,4.172,145.8,4.954,0.901,14.61,104.5028,10.8,11.88,15.74,0,110.3,13.15,11.59,107.8
"2016-02-27 00:58:00",1409807,4.806,149.3,6.716,1.406,16.04,104.4931,10.78,12.04,15.9,0,110.3,13.15,11.56,111.3
"2016-02-27 00:58:30",1409808,4.283,147.1,5.959,1.193,14.83,104.4788,10.74,11.9,15.78,0,110.3,13.15,11.53,109.1
"2016-02-27 00:59:00",1409809,3.763,143.8,1.142,0.11,13.6,104.4832,10.75,11.81,15.69,0,110.3,13.2,11.54,105.8
"2016-02-27 00:59:30",1409810,3.67,144.7,1.485,0.05,13.79,104.4885,10.76,11.8,15.7,0,110.3,13.2,11.55,106.7
"2016-02-27 01:00:00",1409811,3.82,148.8,5.751,0.945,14.76,104.4893,10.77,11.91,15.79,0,110.3,13.15,11.56,110.8
"2016-02-27 01:00:30",1409812,4.654,153.5,6.81,1.412,16.45,104.4821,10.75,11.92,15.81,0,110.3,13.15,11.54,115.5
"2016-02-27 01:01:00",1409813,4.562,153.3,7.596,1.426,16.79,104.4706,10.72,11.96,15.88,0,110.3,13.16,11.51,115.3
"2016-02-27 01:01:30",1409814,3.637,148.5,5.191,1.001,15.06,104.467,10.71,11.82,15.75,0,110.3,13.16,11.50,110.5
"2016-02-27 01:02:00",1409815,4.194,150.1,7.221,1.41,15.75,104.4682,10.71,11.83,15.77,0,110.3,13.15,11.50,112.1
"2016-02-27 01:02:30",1409816,3.923,147.3,6.718,1.281,15.29,104.4685,10.71,11.81,15.8,0,110.3,13.15,11.50,109.3
"2016-02-27 01:03:00",1409817,3.254,142.4,0.602,0.038,13.7,104.4657,10.71,11.71,15.73,0,110.3,13.2,11.49,104.4
"2016-02-27 01:03:30",1409818,3.325,141.5,0.548,0.04,13.75,104.4572,10.68,11.71,15.78,0,110.3,13.2,11.47,103.5
"2016-02-27 01:04:00",1409819,3.456,139.4,1.781,0.096,13.8,104.4468,10.66,11.69,15.82,0,110.3,13.2,11.45,101.4
"2016-02-27 01:04:30",1409820,4.291,141.7,6.413,1.312,15.58,104.4355,10.63,11.79,15.93,0,110.3,13.15,11.42,103.7
"2016-02-27 01:05:00",1409821,4.885,143.7,7.672,1.39,16.46,104.4347,10.63,11.85,15.97,0,110.3,13.15,11.42,105.7
"2016-02-27 01:05:30",1409822,4.336,142.9,6.654,1.321,16.03,104.4347,10.63,11.8,15.94,0,110.3,13.15,11.42,104.9
"2016-02-27 01:06:00",1409823,4.207,144.2,6.661,1.32,15.87,104.4347,10.63,11.82,16.02,0,110.3,13.15,11.42,106.2
"2016-02-27 01:06:30",1409824,4.349,142.2,6.201,1.315,15.33,104.4347,10.63,11.77,15.99,0,110.3,13.15,11.42,104.2
"2016-02-27 01:07:00",1409825,3.774,140.6,4.885,0.87,14.25,104.4299,10.61,11.68,15.95,0,110.3,13.15,11.40,102.6
"2016-02-27 01:07:30",1409826,3.642,137,0.789,0.069,13.4,104.4237,10.6,11.62,15.83,0,110.3,13.2,11.39,99.0
"2016-02-27 01:08:00",1409827,3.612,138.5,1.461,0.088,13.63,104.4084,10.56,11.61,15.82,0,110.3,13.2,11.35,100.5
"2016-02-27 01:08:30",1409828,4.321,143.9,6.858,1.222,15.13,104.4016,10.54,11.67,15.9,0,110.3,13.16,11.33,105.9
"2016-02-27 01:09:00",1409829,4.815,146.7,7.324,1.365,15.82,104.4008,10.54,11.74,16.03,0,110.3,13.16,11.33,108.7
"2016-02-27 01:09:30",1409830,5.104,149.8,7.636,1.442,16.97,104.4008,10.54,11.82,16.13,0,110.3,13.16,11.33,111.8
"2016-02-27 01:10:00",1409831,4.441,148.9,6.95,1.321,15.98,104.4008,10.54,11.78,16.13,0,110.3,13.17,11.33,110.9
"2016-02-27 01:10:30",1409832,4.875,150.6,7.547,1.411,16.25,104.4008,10.54,11.7,16.04,0,110.3,13.17,11.33,112.6
"2016-02-27 01:11:00",1409833,3.904,148.1,5.725,1.1,14.52,104.4008,10.54,11.66,16.01,0,110.3,13.16,11.33,110.1
"2016-02-27 01:11:30",1409834,3.401,144.9,0.657,0.036,13.21,104.402,10.54,11.54,15.89,0,110.3,13.21,11.33,106.9
"2016-02-27 01:12:00",1409835,3.4,142.9,0.646,0.047,13.68,104.3986,10.53,11.56,15.91,0,110.3,13.21,11.32,104.9
"2016-02-27 01:12:30",1409836,3.428,141.1,0.855,0.038,14,104.3962,10.53,11.53,15.88,0,110.3,13.21,11.32,103.1
"2016-02-27 01:13:00",1409837,4.158,144.6,6.516,1.237,15.62,104.3955,10.53,11.63,15.98,0,110.3,13.17,11.31,106.6
"2016-02-27 01:13:30",1409838,4.933,148.1,7.366,1.415,17.24,104.3914,10.51,11.72,16.11,0,110.3,13.17,11.30,110.1
"2016-02-27 01:14:00",1409839,4.416,145.4,6.874,1.35,16.14,104.3916,10.52,11.66,16.06,0,110.3,13.17,11.30,107.4
"2016-02-27 01:14:30",1409840,4.779,148.3,7.348,1.398,16.52,104.3915,10.52,11.71,16.15,0,110.3,13.17,11.30,110.3
"2016-02-27 01:15:00",1409841,4.627,147.3,6.665,1.403,15.46,104.3848,10.5,11.61,16.1,0,110.3,13.17,11.29,109.3
"2016-02-27 01:15:30",1409842,3.573,142.7,0.314,0.066,13.35,104.3855,10.5,11.52,16.02,0,110.3,13.22,11.29,104.7
"2016-02-27 01:16:00",1409843,3.616,142.3,0.73,0.064,13.36,104.3873,10.5,11.51,16.02,0,110.2,13.22,11.29,104.3
"2016-02-27 01:16:30",1409844,3.724,141.6,0.317,0.064,13.51,104.3902,10.51,11.5,16.03,0,110.2,13.22,11.30,103.6
"2016-02-27 01:17:00",1409845,4.141,142.2,3.844,0.879,14.11,104.3914,10.52,11.5,16.07,0,110.3,13.17,11.30,104.2
"2016-02-27 01:17:30",1409846,5.17,148.2,7.019,1.432,16.71,104.3938,10.52,11.67,16.23,0,110.2,13.17,11.31,110.2
"2016-02-27 01:18:00",1409847,5.065,149,6.959,1.378,16.75,104.3952,10.52,11.7,16.3,0,110.2,13.17,11.31,111.0
"2016-02-27 01:18:30",1409848,4.955,150,6.795,1.397,16.25,104.3976,10.53,11.63,16.19,0,110.2,13.17,11.32,112.0
"2016-02-27 01:19:00",1409849,5.182,151.9,7.413,1.425,16.17,104.397,10.53,11.59,15.99,0,110.2,13.17,11.32,113.9
"2016-02-27 01:19:30",1409850,3.867,144.8,0.529,0.041,13.71,104.3983,10.53,11.49,15.88,0,110.2,13.22,11.32,106.8
"2016-02-27 01:20:00",1409851,3.849,143.5,0.606,0.016,13.48,104.3944,10.52,11.47,15.89,0,110.2,13.21,11.31,105.5
"2016-02-27 01:20:30",1409852,3.941,142.2,0.614,0.047,13.46,104.3938,10.52,11.48,15.98,0,110.2,13.21,11.31,104.2
"2016-02-27 01:21:00",1409853,3.901,143.3,0.561,0.035,13.93,104.3938,10.52,11.46,15.97,0,110.2,13.17,11.31,105.3
"2016-02-27 01:21:30",1409854,4.916,148.1,7.015,1.365,16.13,104.3904,10.51,11.67,16.11,0,110.2,13.17,11.30,110.1
"2016-02-27 01:22:00",1409855,5.339,151,7.444,1.406,17.35,104.3871,10.5,11.73,16.15,0,110.2,13.17,11.29,113.0
"2016-02-27 01:22:30",1409856,5.14,149.5,7.342,1.373,15.96,104.3868,10.5,11.57,15.99,0,110.2,13.17,11.29,111.5
"2016-02-27 01:23:00",1409857,5.034,151.9,7.28,1.375,15.85,104.3851,10.5,11.67,15.95,0,110.2,13.16,11.29,113.9
"2016-02-27 01:23:30",1409858,4.466,150,4.922,0.991,14.12,104.3811,10.49,11.46,15.67,0,110.2,13.16,11.28,112.0
"2016-02-27 01:24:00",1409859,3.926,149.5,0.618,0.072,13.25,104.3792,10.48,11.47,15.63,0,110.2,13.21,11.27,111.5
"2016-02-27 01:24:30",1409860,3.87,151.8,1.274,0.03,13.51,104.3744,10.47,11.46,15.55,0,110.2,13.21,11.26,113.8
"2016-02-27 01:25:00",1409861,3.844,154.7,0.581,0.029,13.84,104.3724,10.47,11.44,15.48,0,110.2,13.21,11.26,116.7
"2016-02-27 01:25:30",1409862,5.244,163.3,7.161,1.451,16.76,104.3696,10.46,11.61,15.54,0,110.2,13.17,11.25,125.3
"2016-02-27 01:26:00",1409863,5.701,163.4,7.546,1.414,17.39,104.3684,10.46,11.65,15.51,0,110.2,13.17,11.24,125.4
"2016-02-27 01:26:30",1409864,5.299,165,7.265,1.395,16.95,104.3715,10.46,11.62,15.4,0,110.2,13.17,11.25,127.0
"2016-02-27 01:27:00",1409865,4.682,162.5,6.669,1.323,15.65,104.3738,10.47,11.58,15.32,0,110.2,13.17,11.26,124.5
"2016-02-27 01:27:30",1409866,4.404,161.5,6.942,1.293,15.14,104.378,10.48,11.53,15.21,0,110.2,13.17,11.27,123.5
"2016-02-27 01:28:00",1409867,3.654,156.3,0.532,0.057,13.4,104.3834,10.49,11.45,15.12,0,110.2,13.22,11.28,118.3
"2016-02-27 01:28:30",1409868,3.61,156.5,0.193,0.035,13.57,104.3859,10.5,11.45,15.08,0,110.2,13.22,11.29,118.5
"2016-02-27 01:29:00",1409869,3.319,163.4,13.07,0.286,14.05,104.3856,10.5,11.47,14.99,0,110.2,13.22,11.29,125.4
"2016-02-27 01:29:30",1409870,3.944,166.4,13.77,0.457,14.41,104.3913,10.51,11.5,14.65,0,110.2,13.22,11.30,128.4
"2016-02-27 01:30:00",1409871,5.403,169.7,7.582,1.431,17.47,104.3955,10.53,11.67,14.58,0,110.2,13.18,11.31,131.7
"2016-02-27 01:30:30",1409872,5.164,169.5,7.293,1.424,17.18,104.4023,10.54,11.72,14.6,0,110.2,13.18,11.33,131.5
"2016-02-27 01:31:00",1409873,5.365,173,7.326,1.45,17.51,104.4023,10.54,11.75,14.5,0,110.2,13.18,11.33,135.0
"2016-02-27 01:31:30",1409874,5.549,172.3,7.355,1.441,17.1,104.4026,10.54,11.65,14.36,0,110.2,13.18,11.33,134.3
"2016-02-27 01:32:00",1409875,3.966,165.1,0.643,0.042,13.78,104.411,10.57,11.5,14.18,0,110.2,13.22,11.35,127.1
"2016-02-27 01:32:30",1409876,4.067,164.1,0.632,0.065,13.61,104.4173,10.58,11.52,14.18,0,110.2,13.22,11.37,126.1
"2016-02-27 01:33:00",1409877,4.013,168.7,3.953,0.095,13.98,104.426,10.6,11.52,14.2,0,110.2,13.22,11.39,130.7
"2016-02-27 01:33:30",1409878,4.241,168.4,0.706,0.064,14.21,104.4325,10.62,11.55,14.08,0,110.2,13.22,11.41,130.4
"2016-02-27 01:34:00",1409879,4.483,168.9,2.704,0.763,14.71,104.4362,10.63,11.54,14.02,0,110.2,13.18,11.42,130.9
"2016-02-27 01:34:30",1409880,5.618,173.6,7.218,1.419,17.18,104.4364,10.63,11.75,14.19,0,110.2,13.18,11.42,135.6
"2016-02-27 01:35:00",1409881,6.489,174,6.907,1.37,18.06,104.4444,10.65,11.83,14.43,0,110.2,13.18,11.44,136.0
"2016-02-27 01:35:30",1409882,5.708,171.9,7.386,1.44,16.94,104.4582,10.69,11.79,14.57,0,110.2,13.18,11.48,133.9
"2016-02-27 01:36:00",1409883,5.05,167.6,7.055,1.289,15.41,104.4709,10.72,11.72,14.59,0,110.2,13.18,11.51,129.6
"2016-02-27 01:36:30",1409884,4.231,161.5,0.567,0.035,13.47,104.4715,10.72,11.64,14.61,0,110.2,13.22,11.51,123.5
"2016-02-27 01:37:00",1409885,4.279,161.6,0.501,0.044,13.46,104.4744,10.73,11.65,14.83,0,110.2,13.22,11.52,123.6
"2016-02-27 01:37:30",1409886,4.331,161.4,0.531,0.038,13.59,104.4727,10.72,11.66,14.83,0,110.2,13.22,11.51,123.4
"2016-02-27 01:38:00",1409887,4.592,159,0.614,0.065,14.04,104.4767,10.73,11.68,14.87,0,110.2,13.22,11.52,121.0
"2016-02-27 01:38:30",1409888,5.784,166.1,7.755,1.411,16.65,104.4847,10.75,11.86,15.04,0,110.2,13.17,11.54,128.1
"2016-02-27 01:39:00",1409889,6.469,171.6,7.078,1.387,18.06,104.4906,10.77,11.96,15.01,0,110.2,13.17,11.56,133.6
"2016-02-27 01:39:30",1409890,6.51,171.3,7.365,1.413,17.4,104.493,10.77,11.96,14.99,0,110.2,13.17,11.56,133.3
"2016-02-27 01:40:00",1409891,5.522,167,6.328,1.225,15.26,104.4921,10.77,11.81,14.73,0,110.2,13.17,11.56,129.0
"2016-02-27 01:40:30",1409892,4.804,165.2,0.703,0.039,13.73,104.4947,10.78,11.71,14.5,0,110.2,13.22,11.57,127.2
"2016-02-27 01:41:00",1409893,4.578,167.4,0.829,0.073,13.73,104.4964,10.78,11.72,14.44,0,110.2,13.22,11.57,129.4
"2016-02-27 01:41:30",1409894,4.467,169.9,1.067,0.051,14.02,104.4967,10.78,11.73,14.36,0,110.2,13.22,11.57,131.9
"2016-02-27 01:42:00",1409895,4.796,173.3,5.219,0.866,15.03,104.4985,10.79,11.84,14.35,0,110.2,13.18,11.58,135.3
"2016-02-27 01:42:30",1409896,6.095,180.1,7.618,1.421,17.44,104.5031,10.8,11.9,14.33,0,110.2,13.18,11.59,142.1
"2016-02-27 01:43:00",1409897,6.417,181.8,6.988,1.383,17.25,104.5071,10.81,11.93,14.28,0,110.2,13.18,11.60,143.8
"2016-02-27 01:43:30",1409898,6.592,184.5,7.104,1.403,17.75,104.5094,10.82,11.99,14.14,0,110.2,13.18,11.61,146.5
"2016-02-27 01:44:00",1409899,5.365,180.3,6.548,1.301,15.57,104.5145,10.83,11.85,13.93,0,110.2,13.18,11.62,142.3
"2016-02-27 01:44:30",1409900,4.688,176.5,0.705,0.216,13.78,104.5231,10.85,11.75,13.78,0,110.2,13.22,11.64,138.5
"2016-02-27 01:45:00",1409901,4.831,178.2,0.71,0.072,13.77,104.5239,10.85,11.76,13.72,0,110.2,13.23,11.64,140.2
"2016-02-27 01:45:30",1409902,4.925,176.6,1.728,0.085,13.96,104.5228,10.85,11.77,13.72,0,110.2,13.23,11.64,138.6
"2016-02-27 01:46:00",1409903,5.753,176.1,6.106,1.295,15.34,104.5237,10.85,11.87,13.98,0,110.2,13.18,11.64,138.1
"2016-02-27 01:46:30",1409904,6.446,179,8.16,1.426,17.23,104.5275,10.86,11.97,14.16,0,110.2,13.18,11.65,141.0